Regional Weather Roundup
Issued by NWS

Home | Current Version | Previous Version | Text Only | Print | Product List | Glossary Off
Versions: 1 2 3 4 5 6 7 8 9 10 11 12 13 14 15 16 17 18 19 20 21 22 23 24 25 26 27 28 29 30 31 32 33 34 35 36 37 38 39 40 41 42 43 44 45 46 47 48 49 50

278
ASUS43 KIND 221359
RWRIN

WEATHER ROUNDUP FOR INDIANA
NATIONAL WEATHER SERVICE INDIANAPOLIS IN
900 AM EST WED FEB 22 2017

NOTE: "FAIR" INDICATES FEW OR NO CLOUDS BELOW 12,000 FEET WITH NO
SIGNIFICANT WEATHER AND/OR OBSTRUCTIONS TO VISIBILITY.

* - STATION DOES NOT REPORT WEATHER SUCH AS PRECIPITATION OR FOG.

+ - STATION NOT QUALITY CONTROLLED BY THE NATIONAL WEATHER SERVICE.
    USE DATA WITH CAUTION...ESPECIALLY DEWPOINT AND RELATIVE
    HUMIDITY OBSERVATIONS.

INZ001>003-010>013-019-020-221500-
NORTHWEST INDIANA

CITY           SKY/WX    TMP DP  RH WIND       PRES   REMARKS
GARY /AIRPORT/ CLOUDY    54  52  94 S7        29.82F FOG
KNOX *+        CLOUDY    52  45  76 S7        29.84F
MICHIGAN CITY+ CLOUDY    54  54 100 SW9       29.83F
RENSSELAER +   FOG       48  48 100 S6        29.85F VSB<1/4

$$

LMZ046-743>745-221500-
SOUTHERN LAKE MICHIGAN

STATION/POSITION TIME  TEMP    WIND        PRES    WAVE
                       AIR SEA DIR/SP/G            HT
                 (UTC) (F)     (DEG/KT/KT) (MB)    (FT)
BURNS HARBOR     1340   53     190/  9/ 12 1010.5F
MICHIGAN CITY    1330   53     170/  8/  9   N/A

$$

INZ004-005-014>016-021>024-221500-
NORTH CENTRAL INDIANA

CITY           SKY/WX    TMP DP  RH WIND       PRES   REMARKS
ELKHART        CLOUDY    52  50  93 S5        29.84F FOG
GOSHEN         CLOUDY    54  50  86 S9        29.85F FOG
PERU/GRISSOM   FOG       52  52 100 S8        29.86F VSB 1/4
SOUTH BEND     FAIR      50  50 100 S7        29.84F FOG
WARSAW +       CLOUDY    54  52  94 CALM      29.87S FOG

$$

INZ006>009-017-018-025>027-221500-
NORTHEAST INDIANA

CITY           SKY/WX    TMP DP  RH WIND       PRES   REMARKS
ANGOLA *+      CLOUDY    54  54 100 CALM      29.86F
AUBURN +       CLOUDY    54  52  94 S6        29.88F FOG
FORT WAYNE     CLOUDY    54  52  93 S8        29.89F FOG
KENDALLVILLE + CLOUDY    53  53 100 S7        29.87F FOG

$$

INZ028-029-035-036-043>045-051>053-221500-
WEST CENTRAL INDIANA

CITY           SKY/WX    TMP DP  RH WIND       PRES   REMARKS
GREENCASTLE +  FOG       52  52 100 CALM      29.90S VSB 1/4
LAFAYETTE      FOG       50  50 100 CALM      29.86F VSB<1/4
TERRE HAUTE    FOG       50  49  96 CALM      29.90R VSB 1/4

$$

INZ030>032-037>040-046>048-054>057-064-065-221500-
CENTRAL INDIANA

CITY           SKY/WX    TMP DP  RH WIND       PRES   REMARKS
ANDERSON       CLOUDY    55  54  94 S6        29.91  FOG
CP ATTERBURY + CLOUDY    55  54  94 S6        29.91F
FRANKFORT +    FOG       54  53  98 S6        29.89F VSB<1/4
GREENWOOD *+   CLOUDY    54  54 100 S3        29.91S VSB 3/4
INDIANAPOLIS   CLOUDY    55  54  96 S6        29.90S FOG
-EAGLE CREEK   CLOUDY    53  52  96 S5        29.89S FOG
KOKOMO +       FOG       53  53 100 S7        29.89F VSB 1
MT COMFORT *+  CLOUDY    54  54 100 S5        29.90F
SHELBYVILLE    CLOUDY    57  53  86 S8        29.90S FOG

$$

INZ033-034-041-042-049-050-058-059-221500-
EAST CENTRAL INDIANA

CITY           SKY/WX    TMP DP  RH WIND       PRES   REMARKS
MUNCIE         CLOUDY    58  54  86 S6        29.90F FOG

$$

INZ060-061-067>069-081>083-085>088-221500-
SOUTHWEST INDIANA

CITY           SKY/WX    TMP DP  RH WIND       PRES   REMARKS
EVANSVILLE     FAIR      57  55  93 CALM      29.92R FOG
HUNTINGBURG *+ CLOUDY    58  56  93 S6        29.92S

$$

INZ062-063-066-070>080-084-089>092-221500-
SOUTH CENTRAL AND SOUTHEAST INDIANA

CITY           SKY/WX    TMP DP  RH WIND       PRES   REMARKS
BLOOMINGTON    CLOUDY    56  54  93 SW7       29.91R FOG
MADISON *+     CLOUDY    55  54  94 S3        29.94F
SEYMOUR +      CLOUDY    57  57 100 S3        29.92S FOG

$$





USA.gov is the U.S. government's official web portal to all federal, state and local government web resources and services.